カタログに戻る

ICEYE-X73

運用中科学SSO
NORAD 68496·PAYLOAD·🇵🇹 Portugal

打ち上げ Mar 30, 2026 から Vandenberg Space Force Base

Loading…

次のパス (今後24時間)

TLE

最新Source: Space-Track

元期: Sep 14, 2026, 08:09 UTC

1 68496U 26067CJ  26257.33964290  .00001446  00000-0  14607-3 0  9998
2 68496  97.7702 214.3965 0002760  46.4995 313.6453 14.92568429 25023

AllMySatでICEYE-X73をリアルタイム追跡

Download on the App Store